Location: ?
(35.4554°N, 139.3092°E)
Time: 22:38:58
(UTC+00:00)

SPOT 5 - Pass Details

Date: 21 April 2021
Orbit: 624 x 814 km, 98.2° (Epoch: 10 May)

Event Time Altitude Azimuth Distance (km) Brightness Sun altitude
Exits shadow 12:09:47 26° 15° (NNE) 1,329 4.4 -30.5°
Drops below altitude 10° 12:12:02 10° 0° (N) 2,154 5.8 -30.8°
Sets 12:14:25 0° 355° (N) 3,108 6.9 -31.1°
